Wetbulb
32.98 33.76 35.24 35.07 35.43 36.99 36.40 36.55 33.54 36.50 37.61 40.94 43.47 45.83 47.33 48.47 48.97 49.56 47.60 48.14 48.36 47.23 45.65 45.39 42.44 41.19 39.71 37.47 36.40 35.99 34.94 35.11 34.42 35.42 35.84 35.82 35.86 35.33 35.59 35.26 34.64 34.70 34.02 33.46
27.30 33.27 34.34 31.21 33.91 35.66 36.29 38.10 37.77 38.42 37.99 44.82 46.21 47.46 47.70 48.06 48.19 47.91 48.56 47.84 47.69 47.18 44.88 43.46 40.92 39.86 38.78 37.05 35.92 36.17 34.21 33.49 33.85 33.78 33.52 34.46 34.65 34.84 34.55 33.68 32.42 32.27 32.78 30.84
24.34 31.46 30.51 25.96 33.16 35.92 37.76 39.44 40.02 35.30 40.62 44.70 44.40 45.57 46.70 47.05 47.81 47.92 49.21 47.71 47.08 46.83 44.44 43.31 40.60 39.91 37.52 36.20 35.54 34.86 33.44 32.71 32.14 31.85 32.19 32.69 34.18 33.35 31.86 30.72 30.73 29.67 29.24 27.93
25.39 27.86 18.58 31.88 39.09 39.95 36.98 36.81 40.85 42.30 42.90 44.24 45.29 47.06 47.58 48.62 47.98 47.98 48.75 48.72 47.12 47.29 45.75 44.13 41.66 41.11 38.81 36.51 35.04 33.83 32.42 31.09 30.62 30.31 30.63 31.27 30.35 29.45 29.73 29.32 28.41 28.49 27.68 27.17
23.78 23.53 28.02 31.05 34.91 35.65 35.53 36.21 43.28 42.44 43.70 44.49 44.78 46.00 46.20 48.79 48.56 48.36 49.44 49.65 47.68 47.93 47.37 45.10 42.65 41.31 39.09 36.12 34.98 33.71 32.10 30.56 29.94 29.80 29.47 29.05 28.01 28.45 29.11 28.54 28.51 27.93 28.45 27.20
27.46 21.21 18.97 31.45 37.80 42.39 41.59 31.53 43.17 43.81 43.76 43.81 44.26 39.14 44.94 48.62 49.73 49.70 48.83 47.16 46.42 46.35 46.10 43.88 42.11 41.01 38.59 36.56 35.55 33.85 32.84 31.64 30.74 30.19 29.76 28.41 28.75 28.34 28.98 29.34 28.31 28.48 28.55 29.10
26.61 24.20 28.35 36.42 38.90 41.01 27.78 32.90 43.81 44.24 43.62 44.47 42.59 45.22 47.83 48.93 48.04 45.64 42.38 36.57 45.71 44.60 43.83 42.03 41.35 40.64 37.09 35.38 34.52 34.74 33.52 32.61 30.51 30.44 29.31 28.95 29.23 29.34 29.24 29.00 28.46 27.80 27.54 27.64
28.46 25.94 23.74 40.25 39.61 33.59 39.00 43.76 43.90 44.18 44.99 43.94 46.93 42.11 42.75 45.20 45.21 44.40 42.03 38.92 36.02 37.29 36.39 37.44 38.80 38.00 35.04 34.23 34.49 33.64 33.03 31.44 29.92 29.58 28.90 29.52 29.30 29.38 29.39 29.06 27.72 26.56 25.92 25.80
29.55 29.59 37.44 39.90 41.88 43.55 43.04 42.32 43.55 42.94 43.12 43.66 44.34 43.36 45.47 45.04 45.92 44.07 41.37 39.36 38.67 35.30 34.75 35.12 36.24 35.79 34.40 33.26 33.86 33.50 31.94 30.01 29.13 29.73 29.01 30.02 29.85 29.21 29.27 29.86 28.53 27.76 27.00 26.18
30.80 35.41 37.94 38.34 42.34 43.63 43.24 44.47 44.71 45.33 45.70 46.05 45.01 46.70 44.91 44.71 45.32 43.54 41.09 39.15 36.50 35.90 34.35 33.49 34.86 35.01 33.68 33.38 33.35 31.92 29.79 29.08 29.50 28.18 29.30 29.80 31.08 30.78 30.39 29.84 28.75 28.73 28.10 27.69
31.56 35.77 38.14 40.56 43.44 45.30 44.78 45.14 44.69 46.23 46.66 45.99 46.02 45.99 46.18 45.00 45.23 43.78 41.00 38.42 37.38 36.19 34.14 33.50 33.83 32.05 32.49 32.19 31.90 29.74 28.69 28.87 28.66 29.21 29.27 29.08 29.91 29.95 30.63 30.54 30.97 29.73 28.99 28.63
28.61 37.15 36.56 37.44 38.89 45.33 44.60 43.22 44.79 44.76 44.16 45.37 46.24 46.03 46.85 45.63 45.11 43.16 39.76 38.01 37.11 35.92 34.84 34.03 32.44 31.68 31.69 32.43 31.82 29.71 28.43 28.24 28.22 28.38 28.59 28.80 29.18 28.36 31.35 30.86 30.46 30.92 30.98 31.47
35.44 39.46 39.53 39.84 41.90 45.45 44.04 44.51 45.49 44.80 44.71 43.25 45.30 46.35 47.23 45.20 43.73 39.79 40.11 39.60 37.87 35.96 35.29 34.40 32.92 31.93 32.34 32.73 32.23 30.55 28.96 28.92 28.92 28.51 28.78 28.02 29.07 27.88 26.28 28.05 29.06 28.34 29.78 28.48
38.94 39.45 36.05 40.88 42.14 45.04 45.34 45.63 45.09 44.66 44.12 43.52 44.35 45.05 46.26 44.07 42.17 41.57 40.83 41.20 40.00 37.61 35.77 35.06 33.00 31.53 32.22 33.00 32.32 31.46 30.80 30.63 30.04 29.91 29.95 28.99 29.10 27.99 27.51 25.47 23.61 23.81 26.24 27.28
39.70 41.09 40.76 42.56 43.38 43.75 45.06 44.83 44.65 43.63 43.29 43.13 44.02 42.35 41.25 40.31 40.23 39.95 40.88 40.42 39.30 37.69 36.58 35.82 33.54 32.01 33.61 33.34 32.44 32.18 31.82 31.48 31.12 31.92 31.63 30.53 29.82 28.23 27.53 26.13 25.99 24.79 23.43 23.74
41.85 43.05 40.79 40.22 41.24 41.46 41.25 41.95 42.10 43.04 43.37 43.85 42.95 42.27 42.10 41.67 41.25 41.21 40.83 40.41 36.55 34.88 35.46 34.60 33.14 33.30 34.02 34.02 33.66 32.93 32.12 31.32 31.32 32.51 31.82 31.30 30.62 29.46 28.39 26.19 25.85 24.24 21.83 21.71
38.89 38.06 41.14 41.29 41.77 42.25 42.13 43.07 42.46 42.81 43.92 44.71 45.04 43.64 43.56 40.16 38.70 37.41 37.20 37.11 36.23 35.79 35.71 34.84 33.74 33.95 33.37 32.99 33.08 33.70 32.74 32.55 31.54 32.02 31.19 30.70 30.28 29.85 28.58 27.00 26.19 24.71 23.48 23.93
42.49 42.49 42.74 42.38 42.00 42.15 43.20 43.54 41.92 40.48 38.32 38.03 35.30 35.43 34.94 35.36 36.53 34.26 32.87 33.24 32.76 33.30 33.30 32.71 32.29 32.52 32.89 33.24 34.06 33.85 32.34 31.73 31.36 30.63 30.40 29.76 29.60 29.67 28.50 27.38 26.60 25.47 25.37 24.87
41.72 41.05 41.02 39.86 38.76 41.09 37.38 35.17 34.08 33.41 33.53 34.07 34.69 34.21 33.85 33.85 33.49 32.76 33.12 32.33 31.65 31.45 31.13 30.49 30.62 32.52 32.66 32.69 33.73 33.13 31.59 31.02 30.34 29.93 29.67 29.49 29.16 28.90 28.19 27.46 26.92 27.30 26.98 23.93
38.00 37.10 35.90 33.35 32.85 32.91 31.59 31.36 32.37 32.21 33.12 33.65 33.49 33.30 32.76 32.40 32.40 32.11 32.10 31.85 33.27 33.42 31.03 30.44 31.52 31.79 32.21 30.93 32.50 32.21 30.87 30.63 30.12 29.59 29.45 29.12 29.37 29.26 28.83 27.57 27.30 27.04 26.43 24.21
31.89 31.90 31.65 31.26 31.17 31.52 31.60 31.45 31.67 31.49 32.02 32.94 32.94 31.99 31.65 31.69 32.17 32.27 31.38 29.36 29.30 30.59 29.76 30.69 31.65 31.21 31.68 31.42 32.21 31.77 31.34 30.62 30.57 29.78 29.55 29.40 29.32 29.52 28.65 27.62 26.90 26.95 27.01 24.65
32.93 32.02 31.85 31.99 31.03 30.35 31.23 31.89 32.05 31.77 31.56 31.66 31.90 31.87 31.62 30.92 31.45 30.91 32.37 30.03 29.80 29.41 29.88 30.83 30.87 31.19 30.94 30.86 31.50 30.99 30.24 29.93 30.21 29.49 29.10 29.20 28.50 28.40 27.88 27.19 26.88 27.34 26.83 25.72
32.43 31.53 30.99 30.77 30.42 30.40 30.79 30.67 30.58 30.86 30.33 30.97 31.41 31.48 31.09 30.80 31.42 29.98 27.49 30.28 30.30 31.28 31.99 31.99 31.45 30.29 29.54 32.20 31.52 30.51 30.07 30.02 29.84 29.31 29.17 29.12 28.84 28.28 27.89 27.37 26.97 27.55 26.90 26.00
31.55 31.37 30.47 32.35 32.93 31.15 29.40 30.59 30.24 30.23 30.46 30.85 31.33 32.58 32.40 30.78 30.49 31.41 31.62 31.30 31.13 31.78 30.60 30.47 29.65 29.14 31.81 31.37 30.63 30.56 30.37 30.17 29.97 30.02 29.20 28.90 28.79 28.50 28.29 28.23 27.57 27.91 27.05 26.96
30.63 30.51 31.06 31.99 31.00 30.14 30.50 31.30 31.09 31.26 31.15 30.27 29.69 30.44 30.53 31.63 29.96 29.98 30.38 30.09 30.14 29.61 29.06 28.78 29.30 31.11 31.25 30.81 30.53 30.01 29.97 30.08 29.86 29.47 28.69 28.57 28.63 28.69 28.88 27.29 26.77 26.10 25.27 24.85
32.58 32.44 32.69 32.50 32.13 31.85 31.55 31.81 30.06 30.04 29.18 28.02 28.09 28.73 29.33 29.31 29.43 29.35 29.13 28.78 28.76 28.93 28.73 29.54 30.89 31.04 30.78 30.46 30.36 29.89 29.63 28.69 28.98 28.64 28.45 28.51 27.70 27.28 26.16 25.81 25.41 25.17 24.57 24.33
33.48 32.20 32.52 31.51 31.53 31.37 31.27 30.36 29.62 29.05 30.24 29.02 27.09 28.54 28.53 28.87 28.57 28.23 28.41 28.28 28.25 28.29 29.29 30.06 30.66 30.48 30.38 30.04 29.51 28.90 28.42 28.47 28.46 27.79 28.25 27.68 27.20 26.62 25.37 25.41 25.04 25.12 23.95 23.15
MSLP
1006.23 1005.45 1004.22 1003.40 1002.75 1002.89 1003.30 1002.70 1001.90 1000.51 999.67 999.26 998.97 999.13 999.07 998.94 998.80 998.81 999.38 1000.00 1000.68 1002.25 1003.93 1005.03 1006.90 1008.69 1010.18 1011.67 1012.73 1013.72 1015.19 1016.19 1016.87 1017.26 1017.47 1018.48 1019.07 1019.64 1020.18 1020.38 1020.96 1021.81 1022.24 1022.56
1005.93 1005.81 1005.02 1003.89 1003.37 1002.43 1002.06 1001.77 1001.16 1000.53 999.14 998.23 998.11 997.89 998.37 998.16 998.41 998.24 998.73 999.80 1000.67 1002.14 1004.02 1005.59 1007.09 1008.38 1009.41 1011.30 1013.26 1014.29 1014.98 1016.13 1016.92 1017.26 1017.96 1018.68 1019.06 1019.47 1019.97 1020.68 1021.30 1021.81 1022.07 1022.67
1006.11 1005.16 1004.61 1003.41 1001.69 1000.96 1000.74 999.68 999.13 998.32 997.63 996.98 996.58 997.10 997.34 997.50 997.89 997.65 997.38 998.97 1000.16 1001.70 1003.46 1004.95 1006.91 1008.40 1009.64 1010.76 1012.53 1014.56 1015.55 1016.42 1017.16 1017.73 1018.25 1018.65 1018.88 1019.49 1020.55 1021.22 1021.95 1022.28 1022.63 1023.28
1006.96 1006.22 1004.91 1002.93 1001.61 1001.00 1000.51 999.81 998.27 996.49 995.75 995.71 995.60 996.46 996.48 996.66 997.11 997.06 997.65 998.55 999.52 1001.10 1003.00 1004.68 1006.55 1008.18 1009.63 1011.12 1012.38 1014.11 1015.41 1016.38 1017.10 1017.79 1018.28 1018.69 1019.11 1019.88 1020.89 1021.75 1022.15 1022.49 1023.03 1023.54
1006.56 1005.24 1004.14 1002.68 1000.77 999.96 999.51 998.97 997.14 995.77 995.49 995.88 996.85 996.92 996.38 996.41 996.28 997.23 997.99 998.17 999.14 1000.65 1002.31 1004.04 1005.88 1007.72 1009.33 1010.70 1012.06 1013.35 1014.70 1016.08 1016.80 1017.54 1017.91 1018.51 1019.17 1020.15 1021.11 1021.73 1022.17 1022.67 1023.08 1023.43
1005.62 1004.67 1003.06 1000.09 999.43 998.26 998.66 998.33 996.96 996.04 996.02 995.99 996.57 996.92 997.15 997.36 997.32 997.59 998.69 998.94 999.59 1000.73 1002.30 1003.66 1005.42 1007.30 1009.03 1010.15 1011.26 1012.73 1014.19 1015.30 1016.39 1017.26 1017.62 1018.50 1019.27 1020.17 1020.83 1021.50 1022.09 1022.57 1023.09 1023.51
1004.92 1004.15 1001.76 999.92 999.51 999.18 999.74 998.27 996.48 996.77 996.66 996.67 996.93 997.51 998.12 998.21 998.46 998.94 999.80 1000.62 1000.63 1001.23 1002.24 1003.45 1005.03 1007.04 1008.68 1009.89 1010.88 1011.92 1013.51 1014.87 1016.20 1016.82 1017.51 1018.35 1019.31 1019.98 1020.62 1021.35 1021.86 1022.49 1023.15 1023.66
1003.51 1003.42 1001.46 999.77 999.27 999.16 998.66 998.19 997.43 996.79 997.05 997.50 997.48 997.80 998.25 998.83 999.04 999.62 1000.49 1001.25 1001.59 1002.51 1003.41 1004.47 1005.37 1006.23 1008.08 1009.98 1011.18 1012.14 1013.27 1014.60 1015.92 1016.79 1017.45 1017.93 1018.93 1019.54 1020.17 1020.74 1021.54 1022.31 1023.00 1023.60
1004.76 1003.10 1001.68 1000.20 999.05 999.31 999.91 998.20 997.87 998.12 998.29 998.18 998.71 998.20 998.33 998.59 999.11 999.91 1001.02 1002.44 1003.01 1003.11 1004.47 1005.57 1006.18 1007.26 1008.37 1009.41 1010.63 1011.74 1013.26 1014.49 1015.47 1016.49 1017.17 1017.78 1018.52 1018.97 1019.56 1020.09 1020.79 1021.60 1022.33 1022.97
1003.76 1002.43 1001.51 1001.00 999.58 999.64 999.19 998.00 998.01 998.07 998.15 997.84 997.42 997.62 997.85 998.30 998.99 1000.03 1001.06 1002.36 1003.87 1004.58 1004.91 1006.25 1007.04 1007.92 1009.26 1009.98 1011.32 1011.27 1012.81 1014.37 1015.62 1016.29 1017.04 1017.82 1018.24 1018.69 1019.08 1019.62 1020.29 1020.86 1021.49 1022.19
1003.03 1002.67 1001.66 1000.22 999.55 998.63 998.00 997.89 997.83 997.82 997.56 997.15 996.85 996.80 997.64 998.28 998.87 1000.03 1001.04 1002.63 1003.66 1004.83 1005.84 1006.57 1007.58 1008.53 1009.46 1010.60 1011.24 1012.00 1012.95 1014.32 1015.56 1016.34 1017.03 1017.69 1018.16 1018.58 1019.03 1019.53 1019.97 1020.28 1020.86 1021.55
1002.86 1002.73 1003.10 1002.41 1000.96 999.04 998.06 997.66 997.69 998.17 998.20 997.85 997.22 996.90 997.22 998.04 999.01 999.98 1001.23 1002.74 1003.83 1004.62 1005.91 1007.02 1008.06 1008.86 1009.73 1010.54 1011.13 1011.79 1013.07 1014.32 1015.23 1016.04 1016.77 1017.41 1017.90 1018.76 1019.11 1019.64 1020.17 1020.52 1020.71 1021.16
1002.51 1002.54 1002.09 1001.73 1000.53 998.09 997.66 997.66 997.85 998.38 998.84 998.95 998.42 997.46 997.04 998.12 999.34 1000.49 1001.52 1002.50 1003.64 1004.67 1005.79 1006.88 1008.06 1008.93 1009.72 1010.29 1010.96 1011.81 1012.80 1013.91 1014.84 1015.67 1016.32 1016.97 1017.63 1018.43 1019.35 1020.30 1020.67 1021.11 1021.20 1021.62
1002.13 1001.93 1001.83 999.93 998.61 997.99 997.90 997.72 998.33 998.99 999.56 999.70 1000.00 998.33 997.89 999.05 1000.29 1001.13 1001.93 1002.59 1003.27 1004.54 1005.79 1006.84 1008.00 1008.90 1009.64 1010.22 1010.99 1011.83 1012.63 1013.42 1014.22 1014.96 1015.64 1016.44 1017.06 1018.08 1018.97 1020.03 1020.68 1021.38 1021.77 1021.94
1001.09 1000.28 1000.20 998.98 998.62 998.25 997.97 997.92 997.86 998.84 999.67 1000.00 999.93 999.96 1000.43 1000.71 1001.41 1002.30 1002.59 1003.00 1003.56 1004.80 1005.68 1006.56 1007.57 1008.49 1009.29 1009.95 1010.59 1011.37 1011.97 1012.92 1013.85 1014.49 1015.21 1016.02 1016.68 1017.65 1018.56 1019.53 1020.26 1021.02 1021.85 1022.27
1000.01 999.31 998.88 998.98 998.73 998.43 998.39 998.34 998.63 998.71 999.55 999.86 1000.15 1000.51 1000.82 1000.73 1001.45 1002.52 1003.10 1004.01 1004.59 1005.19 1005.94 1006.48 1007.24 1007.99 1008.90 1009.57 1010.18 1011.02 1011.73 1012.62 1013.56 1014.16 1014.98 1015.64 1016.47 1017.20 1017.97 1018.96 1019.69 1020.55 1021.40 1021.88
999.73 999.25 998.99 998.83 998.92 998.97 998.96 999.17 999.26 999.68 1000.06 1000.17 1000.10 1000.43 1001.02 1001.73 1002.25 1002.99 1003.61 1003.59 1003.81 1004.75 1005.58 1006.46 1007.13 1007.88 1008.87 1009.64 1010.20 1010.90 1011.73 1012.60 1013.28 1014.18 1014.83 1015.51 1016.24 1016.87 1017.62 1018.46 1019.19 1019.96 1020.67 1021.19
1000.46 1000.15 1000.15 1000.19 1000.14 1000.12 1000.10 1000.22 1000.90 1001.40 1001.89 1001.92 1001.72 1001.66 1002.08 1002.71 1003.41 1004.01 1004.74 1005.34 1005.66 1006.05 1006.82 1007.36 1007.85 1008.35 1009.03 1009.62 1010.23 1011.22 1012.09 1012.82 1013.46 1014.22 1015.03 1015.63 1016.22 1016.83 1017.41 1018.21 1018.80 1019.44 1019.88 1020.58
1001.30 1001.35 1001.60 1001.91 1002.08 1001.86 1002.17 1002.52 1002.94 1003.22 1003.14 1003.12 1002.86 1003.04 1003.37 1003.71 1004.24 1004.82 1005.43 1005.99 1006.55 1007.06 1008.01 1008.14 1008.56 1008.90 1009.47 1010.01 1010.79 1011.56 1012.46 1013.29 1013.79 1014.40 1015.17 1015.74 1016.25 1016.78 1017.35 1017.91 1018.41 1018.85 1019.43 1020.31
1002.76 1003.27 1003.52 1003.85 1004.06 1003.90 1004.01 1004.18 1004.11 1004.20 1004.03 1003.72 1003.89 1003.86 1004.39 1004.86 1005.28 1005.77 1006.27 1006.73 1007.12 1007.41 1008.32 1008.73 1009.05 1009.52 1009.96 1010.53 1011.09 1011.94 1012.78 1013.37 1013.96 1014.57 1015.09 1015.58 1016.13 1016.64 1017.15 1017.63 1018.12 1018.65 1019.29 1020.10
1004.47 1004.30 1004.76 1005.22 1005.24 1005.20 1005.11 1005.12 1005.10 1004.79 1004.84 1004.70 1004.77 1005.04 1005.19 1005.54 1005.98 1006.38 1006.79 1007.32 1008.08 1008.22 1008.63 1008.95 1009.35 1009.84 1010.22 1010.87 1011.51 1012.22 1012.83 1013.48 1014.04 1014.52 1015.01 1015.51 1016.05 1016.49 1016.96 1017.46 1017.96 1018.44 1019.11 1019.85
1005.24 1005.54 1005.74 1005.78 1005.59 1005.86 1006.14 1006.05 1005.84 1005.77 1005.53 1005.69 1005.82 1005.84 1005.91 1006.30 1006.57 1006.85 1006.88 1007.56 1008.35 1008.79 1009.18 1009.39 1009.60 1010.09 1010.64 1011.18 1011.88 1012.40 1013.05 1013.65 1014.15 1014.64 1015.11 1015.56 1016.00 1016.45 1016.91 1017.37 1017.83 1018.31 1018.90 1019.60
1006.09 1006.13 1006.09 1006.06 1006.29 1006.80 1006.80 1006.45 1006.44 1006.49 1006.40 1006.51 1006.61 1006.69 1006.80 1007.00 1007.16 1007.35 1007.82 1008.54 1008.79 1009.10 1009.49 1009.98 1010.40 1010.73 1011.14 1011.63 1012.20 1012.80 1013.35 1013.84 1014.29 1014.75 1015.18 1015.57 1015.96 1016.39 1016.83 1017.26 1017.69 1018.15 1018.70 1019.30
1006.39 1006.36 1006.42 1006.62 1006.82 1006.78 1006.67 1006.56 1006.88 1007.11 1007.20 1007.37 1007.42 1007.49 1007.53 1007.68 1007.98 1008.08 1008.38 1008.82 1009.27 1009.61 1010.07 1010.52 1010.87 1011.27 1011.79 1012.27 1012.73 1013.20 1013.69 1014.12 1014.52 1014.91 1015.29 1015.66 1016.04 1016.40 1016.74 1017.15 1017.62 1018.11 1018.63 1019.11
1006.72 1006.84 1006.83 1006.68 1006.49 1006.66 1006.66 1007.06 1007.12 1007.48 1007.70 1007.99 1008.31 1008.39 1008.42 1008.38 1008.56 1009.13 1009.32 1009.69 1009.98 1010.31 1010.77 1011.15 1011.55 1012.00 1012.37 1012.77 1013.20 1013.65 1014.08 1014.46 1014.79 1015.15 1015.52 1015.86 1016.18 1016.50 1016.88 1017.36 1017.85 1018.34 1018.84 1019.34
1006.14 1006.18 1006.07 1006.26 1006.61 1006.57 1006.81 1007.08 1007.38 1007.93 1008.30 1008.69 1009.06 1009.25 1009.40 1009.51 1009.61 1009.76 1010.12 1010.44 1010.71 1011.02 1011.35 1011.85 1012.17 1012.52 1012.89 1013.29 1013.67 1014.08 1014.47 1014.89 1015.22 1015.55 1015.86 1016.21 1016.58 1016.97 1017.41 1017.83 1018.29 1018.69 1019.13 1019.54
1006.07 1006.05 1006.15 1006.58 1007.03 1007.11 1007.33 1007.61 1007.94 1008.44 1008.70 1009.05 1009.48 1009.80 1010.02 1010.25 1010.37 1010.54 1010.81 1011.12 1011.44 1011.75 1012.01 1012.37 1012.72 1013.02 1013.38 1013.78 1014.20 1014.63 1015.01 1015.37 1015.69 1016.02 1016.35 1016.70 1017.06 1017.47 1017.89 1018.28 1018.70 1019.08 1019.49 1019.93
Wind_Speed
8 18 19 18 18 13 8 8 6 9 10 10 9 7 9 8 8 9 10 6 10 14 11 17 17 14 14 13 11 11 8 10 9 10 11 11 10 9 9 7 7 8 9 8
7 14 17 17 19 22 18 18 14 19 20 15 14 13 12 12 13 10 6 11 13 15 16 15 15 16 17 17 12 13 13 12 11 11 9 10 10 8 8 7 8 3 7 9
8 14 16 14 14 13 22 21 21 22 21 16 9 9 9 9 11 12 7 11 11 15 18 17 17 16 16 17 14 13 11 10 10 11 10 10 9 9 8 8 7 7 9 10
9 8 12 10 18 10 10 19 29 20 18 14 10 9 7 5 7 6 3 12 14 13 17 17 18 17 16 15 16 14 13 12 11 11 10 7 11 11 9 8 7 7 7 8
6 10 12 17 18 18 14 16 23 10 7 9 2 10 10 6 9 7 6 6 11 13 13 19 19 18 17 17 16 15 15 14 13 12 12 11 11 11 10 8 6 7 6 7
8 7 8 11 12 7 6 11 16 8 6 6 5 4 1 9 11 4 8 3 13 14 14 17 18 19 18 19 18 16 16 14 13 12 12 11 12 11 10 8 7 6 6 6
14 11 12 11 13 11 3 6 8 7 11 4 3 2 4 5 6 6 4 5 5 13 16 16 19 19 15 15 17 14 15 15 14 13 13 13 12 11 11 10 9 8 7 6
10 10 10 7 8 10 6 9 14 15 8 8 3 2 1 2 3 5 5 5 5 10 9 9 12 16 17 13 9 13 14 14 13 12 11 11 13 12 11 10 10 9 8 7
2 4 22 24 13 8 10 7 5 8 15 14 13 5 2 1 5 8 7 6 4 12 12 8 10 11 14 13 16 17 14 12 13 11 11 11 11 12 10 10 8 8 8 7
7 4 19 20 13 13 17 8 10 11 13 14 10 6 5 3 3 7 9 10 9 10 13 11 11 12 11 13 14 18 17 15 11 12 11 10 7 7 7 7 7 7 7 6
15 15 17 15 11 11 7 7 10 13 12 13 13 10 6 4 4 7 9 9 10 10 10 12 12 13 14 14 15 15 15 14 12 10 11 10 7 6 5 4 5 6 5 5
13 14 12 19 22 21 9 10 6 7 12 17 14 6 7 5 7 8 10 10 10 12 13 13 13 13 13 14 15 16 14 12 11 10 9 9 8 6 5 12 10 9 8 7
14 12 17 22 30 11 8 7 3 2 2 10 16 12 5 9 9 10 11 12 12 12 13 13 13 13 14 14 15 15 13 13 10 10 9 9 8 8 7 8 12 10 12 16
20 14 17 23 8 3 5 7 7 7 4 7 12 16 8 12 11 9 9 10 13 14 13 13 13 12 14 15 15 14 13 15 11 10 9 9 8 9 8 7 7 5 7 11
20 20 21 9 9 6 5 8 3 9 7 6 6 9 7 8 8 5 6 9 12 12 12 13 13 13 15 14 14 13 12 10 10 9 8 9 9 9 8 8 7 7 6 5
18 14 5 9 7 8 9 6 7 6 10 8 8 6 7 12 14 9 9 9 8 9 10 12 12 14 14 14 14 10 9 10 9 7 7 7 9 9 9 8 8 8 7 7
10 7 9 9 9 9 7 7 8 9 11 8 6 6 6 7 7 7 4 4 6 8 8 10 11 11 10 8 10 7 8 9 10 7 7 7 7 8 8 8 7 8 8 9
10 7 7 8 8 7 7 7 12 12 10 10 6 4 6 7 6 7 8 9 9 11 9 7 8 10 10 9 9 8 7 8 8 8 6 6 6 6 7 7 7 8 7 9
7 8 9 11 10 10 10 10 9 7 6 5 4 6 6 7 9 9 9 9 8 9 4 7 10 11 11 8 10 8 8 7 7 7 7 7 6 6 6 7 7 6 7 10
10 10 10 10 10 9 7 6 5 6 6 5 4 6 7 7 8 8 8 6 2 5 8 9 9 9 10 7 10 8 8 8 7 7 7 7 6 6 7 7 6 6 8 9
6 8 7 5 7 7 8 7 6 7 7 6 6 6 7 7 7 8 8 6 4 9 10 10 8 7 7 6 8 8 8 7 6 6 6 6 6 5 6 7 6 6 7 7
4 4 4 4 7 8 7 6 6 6 7 7 7 6 8 7 7 7 6 8 7 11 6 5 6 8 8 7 8 8 7 6 6 6 6 5 6 5 6 6 6 6 6 7
4 4 5 7 7 6 5 7 8 8 9 9 8 8 7 5 3 5 6 6 6 6 5 4 9 12 10 6 7 7 7 6 6 5 5 5 5 5 5 5 5 6 6 7
3 4 5 1 2 4 8 7 8 7 7 8 7 5 5 5 7 6 7 8 8 6 7 8 10 12 8 7 7 6 6 6 5 5 5 5 4 4 5 5 5 5 4 5
3 3 3 1 4 4 6 5 7 7 8 9 10 9 9 7 6 5 7 7 10 9 8 11 11 9 6 6 6 6 5 5 5 5 5 4 4 4 5 5 5 5 5 5
2 1 2 4 3 3 3 3 5 4 5 5 5 5 6 6 6 6 7 9 7 8 7 7 5 6 6 6 6 6 6 6 5 4 4 4 5 5 5 5 5 5 5 4
3 1 3 4 3 4 4 4 4 4 4 5 6 4 5 5 6 7 8 7 6 6 6 6 5 6 6 6 6 6 6 5 5 4 5 5 5 6 5 5 5 5 5 5
Wind_Direction
292 311 311 304 313 283 273 259 243 287 254 279 308 225 200 236 278 258 169 195 157 154 150 148 144 144 129 126 123 122 130 145 146 143 130 142 144 149 157 143 133 151 157 146
250 263 292 319 302 285 265 239 260 259 259 260 252 239 229 238 258 246 227 180 176 163 156 151 148 149 139 145 144 149 145 147 145 139 144 151 155 147 130 116 71 62 97 84
301 321 321 313 292 304 316 256 245 237 245 261 215 252 248 244 244 239 227 178 179 173 166 159 158 159 152 149 143 148 141 144 144 144 153 156 149 116 105 111 108 91 90 93
271 288 263 268 273 260 266 302 292 257 262 260 229 224 239 228 231 263 278 183 172 167 160 164 161 167 149 150 152 151 153 152 153 155 150 126 118 121 119 123 132 120 123 126
234 247 286 279 265 270 285 300 293 285 310 14 358 263 258 230 205 214 229 168 156 163 162 161 159 165 159 159 161 161 161 165 162 160 147 135 128 133 135 140 145 140 145 133
203 225 243 250 269 257 276 273 253 257 277 235 226 230 63 10 12 152 65 122 146 153 158 154 158 163 167 166 167 170 168 165 157 159 147 140 139 143 143 145 134 127 134 127
227 237 255 259 272 272 253 248 33 346 329 303 281 41 72 7 52 60 72 15 176 157 165 160 155 164 163 168 171 157 149 151 160 159 152 149 145 148 151 151 144 139 141 142
230 229 246 198 335 285 288 324 277 297 314 326 11 346 46 303 119 96 76 43 61 116 125 137 146 147 143 142 137 137 143 143 148 160 151 152 160 155 162 156 153 151 154 162
339 335 303 302 322 339 300 272 2 357 331 325 292 225 138 208 206 129 118 98 91 125 117 108 119 135 148 138 140 138 137 145 150 151 153 156 163 159 162 160 159 168 168 173
320 286 303 316 342 245 273 1 351 330 297 295 308 191 136 162 202 132 139 137 129 130 126 120 122 126 129 142 148 138 139 141 145 144 148 153 155 161 163 160 164 174 169 171
291 296 308 284 305 356 15 342 334 336 326 293 287 298 151 191 159 146 140 130 151 144 137 129 125 124 138 146 147 138 134 141 147 148 150 151 154 164 162 156 168 172 158 164
278 298 298 292 306 283 279 329 6 354 359 344 341 310 265 163 147 143 127 144 155 145 144 144 134 140 146 153 150 140 142 151 157 155 157 161 159 140 56 119 101 80 99 123
299 293 305 291 270 307 318 322 46 343 308 350 336 302 205 128 121 118 137 151 147 146 147 150 151 155 160 161 153 152 153 157 158 159 161 167 165 157 136 115 116 113 116 123
286 304 306 288 301 330 313 330 113 78 59 56 331 7 70 99 115 135 153 143 136 137 147 151 154 160 163 164 159 159 160 161 165 163 166 169 168 162 154 157 156 142 141 140
262 262 231 298 320 306 297 319 269 178 187 202 165 131 91 90 67 60 63 100 120 134 146 151 155 160 164 167 164 167 162 162 166 163 169 168 153 160 163 164 165 153 142 155
299 295 324 293 295 319 318 302 299 331 191 188 167 175 166 153 148 143 134 154 150 152 168 162 157 159 164 168 164 166 149 147 158 148 156 155 154 165 158 162 168 156 160 167
310 319 346 340 343 339 326 328 333 13 25 25 172 169 164 146 137 128 143 132 135 147 144 149 147 148 153 159 155 145 141 145 143 138 150 152 155 155 156 165 165 164 173 172
313 331 334 330 330 322 313 30 40 27 11 346 8 94 105 129 128 100 88 83 81 79 84 105 114 121 128 133 138 130 136 141 138 142 146 149 158 158 157 167 170 171 173 158
349 9 14 21 9 10 28 27 29 19 2 354 51 76 78 99 118 121 128 116 118 119 110 103 113 120 127 118 126 124 136 143 141 146 154 157 164 163 172 176 180 178 150 155
34 32 40 40 33 35 37 26 28 25 357 31 53 79 85 92 106 118 117 102 133 126 136 131 122 126 134 114 128 138 143 154 155 157 160 165 170 171 177 173 167 158 146 160
58 48 50 54 51 41 39 36 39 50 31 40 71 89 101 99 111 126 128 103 100 127 132 140 140 138 148 133 124 138 141 149 146 149 149 158 160 160 155 158 165 162 152 158
59 57 58 60 63 52 36 37 49 50 61 60 67 82 94 94 92 75 76 117 116 122 139 134 130 128 139 137 129 129 136 148 147 146 153 158 161 161 162 166 168 162 157 157
75 75 65 56 61 72 68 61 53 56 60 59 65 69 71 61 48 98 100 100 117 125 114 118 133 141 134 109 126 132 137 137 138 144 151 158 158 156 160 165 169 162 168 167
63 59 75 68 224 82 68 77 79 72 71 66 54 47 73 83 65 58 92 111 111 114 108 123 119 112 115 120 122 127 133 135 137 141 141 140 151 165 170 161 160 146 136 132
128 126 124 167 77 82 97 100 95 87 85 67 52 46 53 52 78 82 87 89 96 101 103 104 113 109 112 116 118 121 124 128 129 129 137 149 153 145 131 127 128 133 132 136
194 82 85 51 56 80 83 65 87 89 93 86 75 63 69 78 92 93 87 90 89 104 109 123 116 114 118 121 123 123 118 114 116 115 120 110 104 104 108 110 113 119 121 119
130 89 108 99 92 66 66 61 80 83 88 99 99 91 87 85 87 94 101 102 99 95 99 101 105 106 108 107 103 100 104 109 113 116 111 111 112 110 109 104 101 101 104 107